Overview Statistics Trail Chart Weather Telemetry Raw packets
 

This is the latest recevied weather packets stored in our database for station/object W6MAF. If no packets are shown the sender has not sent any weather packets the latest 10 day(s).

<< 19 20 21 22 23 24 25 >>
Time Temp. Humidity Pressure Rain* Wind** Luminosity Snow
1788538463 18.89° C 26% - 0 mm 3.13 m/s, 256° - -
1788538165 18.89° C 28% - 0 mm 4.02 m/s, 194° - -
1788537868 18.33° C 30% - 0 mm 4.47 m/s, 191° - -
1788537570 18.33° C 33% - 0 mm 3.13 m/s, 233° - -
1788537269 17.78° C 35% - 0 mm 4.02 m/s, 222° - -
1788536674 17.22° C 39% - 0 mm 4.02 m/s, 208° - -
1788536376 16.67° C 41% - 0 mm 4.02 m/s, 226° - -
1788536078 16.67° C 42% - 0 mm 4.92 m/s, 219° - -
1788535781 16.11° C 44% - 0 mm 4.02 m/s, 222° - -
1788535480 16.11° C 48% - 0 mm 5.36 m/s, 222° - -
1788535182 15.56° C 50% - 0 mm 5.36 m/s, 201° - -
1788534884 15.56° C 54% - 0 mm 4.92 m/s, 233° - -
1788534587 15° C 58% - 0 mm 3.58 m/s, 229° - -
1788534289 15° C 61% - 0 mm 4.47 m/s, 229° - -
1788533991 14.44° C 66% - 0 mm 4.92 m/s, 228° - -
1788533690 14.44° C 70% - 0 mm 4.02 m/s, 207° - -
1788533393 13.89° C 74% - 0 mm 4.02 m/s, 215° - -
1788533095 13.89° C 79% - 0 mm 0.45 m/s, 207° - -
1788532797 13.33° C 82% - 0 mm 2.68 m/s, 231° - -
1788532500 13.33° C 86% - 0 mm 5.36 m/s, 246° - -
1788532202 12.78° C 90% - 0 mm 5.81 m/s, 201° - -
1788531901 12.78° C 91% - 0 mm 4.92 m/s, 222° - -
1788531602 12.78° C 92% - 0 mm 5.36 m/s, 231° - -
1788531304 12.78° C 93% - 0 mm 6.71 m/s, 203° - -
1788531007 12.22° C 93% - 0 mm 4.92 m/s, 232° - -

* Rain latest hour (hover to see other rain measurements)
** Current wind speed in m/s (hover to see current wind gust speed)